#timestamp,LO_Frequency,Hit,StdDev 
1514988015.2,286047002.1,P
1514988035.9,286047002.6,N
1514988055.7,286047001.2,N
1514988095.5,286046994.0,P
1514988115.3,286046991.9,N
1514988135.2,286046988.5,N
1514988155.9,286046989.6,N
1514988215.6,286046991.9,P
1514988235.4,286046990.2,P
1514988255.3,286046989.9,P
1514988275.1,286046986.0,Y
1514988276.0,286046986.0,P
1514988295.8,286046993.9,N
1514988315.7,286046995.9,N
1514988335.5,286046997.3,N
1514988355.3,286046997.0,N
1514988375.2,286046997.3,N
1514988395.9,286046996.8,N
1514988415.7,286046996.7,N
1514988435.5,286046997.3,N
1514988455.4,286047000.6,N
1514988475.2,286047005.5,N
1514988495.0,286047008.4,N
1514988495.9,286047008.4,N
1514988515.8,286047012.5,N
1514988535.6,286047015.4,N
1514988555.4,286047017.4,N
1514988575.3,286047021.4,N
1514988595.1,286047019.6,N
1514988596.0,286047019.6,N
1514988615.8,286047021.2,N
1514988635.7,286047019.9,N
1514988655.5,286047021.8,N
1514988675.3,286047019.1,N
1514988695.2,286047023.4,N
1514988715.9,286047024.5,N
1514988735.7,286047025.3,N
1514988755.6,286047027.4,N
1514988775.4,286047023.7,N
1514988795.2,286047024.6,N
1514988815.0,286047026.8,N
1514988815.9,286047026.8,N
1514988835.8,286047026.4,N
1514988855.6,286047027.8,N
1514988875.4,286047026.2,N
1514988895.3,286047024.1,N
1514988915.1,286047022.2,N
1514988935.8,286047023.6,N
1514988955.7,286047021.2,N
1514988975.5,286047020.4,N
1514988995.3,286047019.4,N
1514989015.2,286047023.5,Y
1514989035.9,286047001.6,P
1514989055.7,286047002.5,N
1514989075.6,286046997.4,N
1514989095.4,286046995.0,N
1514989115.2,286046993.8,N
1514989135.0,286046992.2,N
1514989136.0,286046992.2,N
1514989155.8,286046989.4,N
1514989175.6,286046983.9,N
1514989195.5,286046987.2,N
1514989215.3,286046988.8,N
1514989235.1,286046988.5,N
1514989255.9,286046989.5,N
1514989275.7,286046987.1,N
1514989295.5,286046991.6,N
1514989315.4,286046988.9,N
1514989335.2,286046991.6,N
1514989355.0,286046989.9,N
1514989355.9,286046989.9,N
1514989375.8,286046990.0,N
1514989395.6,286046987.9,N
1514989415.4,286046985.6,N
1514989435.2,286046984.0,N
1514989455.1,286046982.9,N
1514989456.0,286046982.9,N
1514989475.8,286046982.6,N
1514989495.6,286046982.7,N
1514989515.5,286046981.8,N
1514989535.3,286046982.2,N
1514989555.1,286046982.5,N
1514989575.9,286046984.2,N
1514989595.7,286046988.0,N
1514989615.5,286046989.6,N
1514989635.4,286046988.2,Y
1514989655.2,286046998.6,P
1514989675.0,286047005.1,N
1514989675.9,286047005.1,N
1514989695.8,286047004.2,N
1514989715.6,286047004.9,N
1514989735.4,286047006.8,N
1514989755.3,286047006.8,N
1514989805.1,286047013.8,E
1514989815.1,286047010.2,N
1514989816.0,286047010.2,P
1514989835.8,286047001.9,P
1514989855.6,286047004.7,N
1514989875.4,286047007.8,N
1514989895.3,286047006.6,N
1514989915.1,286047013.6,Y
1514989935.8,286047006.8,P
1514989955.7,286047007.1,P
1514989975.5,286047005.9,P
1514989995.4,286047003.1,Y
1514990015.2,286046999.2,P
1514990035.0,286046995.0,N
1514990035.9,286046995.0,N
1514990055.7,286046994.9,N
1514990075.6,286046996.1,N
1514990095.4,286046997.5,N
1514990115.2,286046999.6,N
1514990135.1,286047004.2,N
1514990136.0,286047004.2,N
1514990155.8,286047004.3,N
1514990175.6,286047001.1,N
1514990195.5,286046999.2,N
1514990215.3,286046995.2,N
1514990235.1,286046997.6,N
1514990255.9,286046999.3,N
1514990275.7,286047000.7,N
1514990295.5,286046999.6,N
1514990315.4,286047001.2,N
1514990335.2,286047002.4,N
1514990355.0,286047001.1,N
1514990355.9,286047001.1,N
1514990375.7,286047002.0,N
1514990395.6,286046999.9,N
1514990415.4,286046999.4,N
1514990435.2,286046994.5,N
1514990455.1,286046991.9,N
1514990456.0,286046991.9,N
1514990475.8,286046994.1,N
1514990495.6,286046993.5,N
1514990515.5,286046990.1,N
1514990535.3,286046991.1,N
1514990555.1,286046991.6,N
1514990575.9,286046990.4,N
1514990595.7,286046993.2,N
1514990615.5,286046987.0,N
1514990635.4,286046985.7,Y
1514990655.2,286046987.5,P
1514990675.0,286046986.4,N
1514990675.9,286046986.4,N
1514990695.8,286046986.4,N
1514990715.6,286046987.9,N
1514990735.4,286046987.6,Y
1514990755.3,286046997.6,P
1514990775.1,286046995.6,N
1514990776.0,286046995.6,N
1514990795.8,286046995.7,N
1514990815.7,286046993.9,N
1514990835.5,286046993.8,N
1514990855.3,286046992.3,N
1514990875.1,286046992.5,N
1514990895.9,286046992.1,Y
1514990915.7,286046999.0,P
1514990935.5,286046994.9,N
1514990955.4,286046995.5,N
1514990975.2,286046995.8,N
1514990995.0,286046996.0,N
1514990995.9,286046996.0,N
1514991015.8,286046996.9,N
1514991035.6,286046997.0,N
1514991055.4,286046995.3,Y
1514991075.3,286047001.4,P
1514991095.1,286047001.2,N
1514991115.8,286047003.4,N
1514991135.7,286047005.6,N
1514991155.5,286047003.4,N
1514991175.3,286047003.1,N
1514991195.2,286047000.2,N
1514991215.9,286047000.1,N
1514991235.7,286047003.3,N
1514991255.6,286047005.8,N
1514991275.4,286047003.4,N
1514991295.2,286046999.7,N
1514991315.0,286046999.2,N
1514991315.9,286046999.2,N
1514991335.8,286047000.9,N
1514991355.6,286047000.4,N
1514991375.4,286047002.8,N
1514991395.3,286047001.6,N
1514991415.1,286047003.2,N
1514991416.0,286047003.2,N
1514991435.8,286047004.1,N
1514991455.7,286047001.5,N
1514991475.5,286047002.8,N
1514991495.3,286046998.0,N
1514991515.2,286046991.9,Y
1514991535.9,286046985.9,P
1514991555.7,286046984.9,N
1514991575.6,286046982.3,N
1514991595.4,286046980.6,N
